Regional Weather Roundup
Issued by NWS

Home | Current Version | Previous Version | Text Only | Print | Product List | Glossary On
Versions: 1 2 3 4 5 6 7 8 9 10 11 12 13 14 15 16 17 18 19 20 21 22 23 24 25 26 27 28 29 30 31 32 33 34 35 36 37 38 39 40 41 42 43 44 45 46 47 48 49 50
000
ASUS43 KMKX 220400
RWRWI

WISCONSIN REGIONAL WEATHER ROUNDUP
NATIONAL WEATHER SERVICE MILWAUKEE/SULLIVAN WI
1100 PM CDT THU SEP 21 2017

NOTE: "FAIR" INDICATES FEW OR NO CLOUDS BELOW 12,000 FEET WITH NO
SIGNIFICANT WEATHER AND/OR OBSTRUCTIONS TO VISIBILITY.

WIZ001-002-006>008-014>016-023>028-220500-
NORTHWEST WISCONSIN

CITY           SKY/WX    TMP DP  RH WIND       PRES   REMARKS
SUPERIOR ARPT  MOCLDY    59  56  88 NE9       29.91S
ASHLAND        MOCLDY    58  57  97 CALM      29.92S
HAYWARD        CLEAR     73  64  73 S13G21    29.91S
SIREN          MOCLDY    73  65  74 SE8       29.86S
CUMBERLAND     MOCLDY    70  64  83 SE8       29.89S
RICE LAKE      PTCLDY    73  65  77 SE12      29.91S
CHETEK         PTCLDY    72  66  82 SE9       29.91R
LADYSMITH      CLEAR     69  66  90 SE3       29.96R
EAU CLAIRE     NOT AVBL
MENOMONIE      CLEAR     71  65  83 SE8       29.89R
NEW RICHMOND   NOT AVBL
OSCEOLA        CLEAR     74  64  70 SE10      29.87R
$$

WIZ003>005-009-010-017-018-220500-
NORTH CENTRAL WISCONSIN

CITY           SKY/WX    TMP DP  RH WIND       PRES   REMARKS
MANITOWISH WTR PTCLDY    67  67 100 SE6       29.99S
ARBOR VITAE    CLEAR     69  67  93 SE7       29.99S
WOODRUFF       CLEAR     69  67  93 SE7       29.99S
RHINELANDER    CLEAR     67  67 100 SE3       30.01S
EAGLE RIVER    PTCLDY    67  67 100 SE3       30.01S FOG
LAND O LAKES   CLEAR     67  66  96 S5        30.02S
PHILLIPS       CLEAR     69  67  95 SE8       29.96S
TOMAHAWK       CLEAR     66  65  94 CALM      30.00S
MEDFORD        PTCLDY    69  64  83 SE9       29.97S
MERRILL        CLEAR     68  68 100 SE3       30.00S
$$

WIZ029-030-035-036-043>047-220500-
CENTRAL WISCONSIN

CITY           SKY/WX    TMP DP  RH WIND       PRES   REMARKS
WAUSAU         CLEAR     68  65  90 E5        29.98R
MOSINEE        CLEAR     70  64  83 SE7       30.00S
MARSHFIELD     CLEAR     71  63  75 SE7       29.96S
STEVENS POINT  CLEAR     68  65  90 SE3       29.99S
WAUPACA        CLEAR     70  68  93 CALM      29.99S
WAUTOMA        CLEAR     69  67  93 CALM      29.99R
WISC RAPIDS    CLEAR     72  66  81 SE6       29.98S
CAMP DOUGLAS   NOT AVBL
$$

WIZ011>013-019>022-031-037>040-048>050-220500-
NORTHEAST WISCONSIN

CITY           SKY/WX    TMP DP  RH WIND       PRES   REMARKS
ANTIGO         CLEAR     67  67 100 SE8       30.02F FOG
SHAWANO        CLEAR     70  67  90 CALM      29.99S FOG
OCONTO         CLEAR     64  63  98 CALM      30.00S
STURGEON BAY   CLEAR     66  65  96 SE7       30.02S FOG
GREEN BAY      CLEAR     68  67  96 CALM      30.00S
MANITOWOC      FOG       64  63  94 CALM      30.02S VSB 1/4
APPLETON       MOCLDY    72  63  73 VRB6      29.99S
CLINTONVILLE   CLEAR     70  66  88 SE3       29.99S
OSHKOSH        CLEAR     68  66  93 S5        29.99S
$$

WIZ032>034-041-042-053>061-220500-
SOUTHWEST WISCONSIN

CITY           SKY/WX    TMP DP  RH WIND       PRES   REMARKS
LA CROSSE      NOT AVBL
SPARTA         PTCLDY    74  65  72 S3        29.95S
VIROQUA        PTCLDY    73  67  83 CALM      29.97R
BOSCOBEL       CLEAR     74  66  76 CALM      29.95R
PRAIRIE DU CHI PTCLDY    78  65  65 SE5       29.93S
PLATTEVILLE    PTCLDY    73  69  86 SE6       29.98R
$$

WIZ056-057-062-063-064-067-068-220500-
SOUTH CENTRAL WISCONSIN

CITY           SKY/WX    TMP DP  RH WIND       PRES   REMARKS
REEDSBURG      CLEAR     74  65  75 CALM      29.97R
BARABOO/DELLS  CLEAR     75  64  69 SW5       29.97S
LONE ROCK      NOT AVBL
MINERAL POINT  CLEAR     73  68  83 SE6       29.99R
MADISON        PTCLDY    77  66  68 S7        29.98S
MIDDLETON      CLEAR     70  65  84 CALM      29.99S
WATERTOWN      CLEAR     72  70  93 SE6       29.99S
MONROE         CLEAR     73  64  73 SE8       29.99S
JANESVILLE     CLEAR     72  64  78 E6        29.99R
$$

WIZ051-052-058>065-066-070>072-220500-
SOUTHEAST WISCONSIN

CITY           SKY/WX    TMP DP  RH WIND       PRES   REMARKS
MILWAUKEE      PTCLDY    73  69  87 SE5       30.01S FOG
WAUKESHA       CLOUDY    68  64  88 CALM      30.03
MILWAUKEE/TIMM PTCLDY    72  64  78 CALM      30.02F
RACINE         CLEAR     72  69  90 S3        30.03S FOG
BURLINGTON     PTCLDY    69  69 100 CALM      30.02R
KENOSHA        CLEAR     74  69  85 SE5       30.02S
FOND DU LAC    CLEAR     71  66  84 SE6       30.00S
SHEBOYGAN      CLOUDY    65  65 100 CALM      30.02S FOG
WEST BEND        N/A     64  64 100 CALM      30.02S FOG
JUNEAU         CLEAR     70  66  89 SE7       30.01S
$$

LSZ147-162-220500-
LAKE SUPERIOR

STATION/POSITION TIME  TEMP    WIND        PRES    WAVE
                       AIR SEA DIR/SP/G            HT/PER
                 (UTC) (F)     (DEG/KT/KT) (MB)    (FT/S)
W MID LAKE BUOY  0250   59 55  110/ 12/ 14 1013.5S   2/ 4
DEVILS ISLAND    0300   62      90/  3/  5 1013.1F
SAXON HARBOR     0340   62      70/  3/  4 1012.2F
$$

LMZ867-665-643>646-220500-
LAKE MICHIGAN

STATION/POSITION TIME  TEMP    WIND        PRES    WAVE
                       AIR SEA DIR/SP/G            HT/PER
                 (UTC) (F)     (DEG/KT/KT) (MB)    (FT/S)
S GREEN BAY BUOY 0330   67 67  130/  6/  8 1015.7F
N MID LAKE BUOY  0250   67 66  150/  4/  6 1017.0S   1
NORTHPORT PIER   0340   68     170/  5/  8 1016.3S
KEWAUNEE LAKESHO 0330   64      CALM  /  1 1015.6S
SHEBOYGAN LAKESH 0300   70     220/  2/  2 1015.9F
PORT WASHINGTON  0340   71     220/  2/  3 1017.3R
ATWATER BUOY     0209   69 67  160/  2/  4 1016.6R
MILWAUKEE LAKESH 0330   71     140/  1/  2   N/A
S MID LAKE BUOY  0250   73 70  100/ 10/ 10 1016.3R   0
KENOSHA   LAKESH 0300   72      CALM  /  3 1015.9
$$

TC  - TEMPERATURE IN CELSIUS
VSB - VISIBILITY IN STATUTE MILES
WCI - WIND CHILL INDEX
HX  - HEAT INDEX





USA.gov is the U.S. government's official web portal to all federal, state and local government web resources and services.